Location: Newark
(25.4800°N, 85.7200°E)
Time: 23:04:59
(UTC+00:00)

Vanguard 1 Rocket - Pass Details

Date: 24 August 2019
Orbit: 651 x 4225 km, 34.3° (Epoch: 19 September)

Event Time Altitude Azimuth Distance (km) Brightness Sun altitude
Rises 23:34:30 0° 296° (WNW) 3,235 9.8 -5.2°
Reaches altitude 10° 23:36:31 10° 301° (WNW) 2,479 9.2 -4.8°
Maximum altitude 23:42:11 61° 22° (NNE) 1,319 8.5 -3.6°
Drops below altitude 10° 23:52:36 10° 101° (ESE) 4,427 12.3 -1.3°
Sets 23:57:27 0° 105° (ESE) 6,030 12.9 -0.2°
